This is the latest recevied weather packets stored in our database for station/object KG5WBN. If no packets are shown the sender has not sent any weather packets the latest 10 day(s).
| Time | Temp. | Humidity | Pressure | Rain* | Wind** | Luminosity | Snow |
|---|---|---|---|---|---|---|---|
| 1778074247 | 26.11° C | 83% | 1012.5 hPa | 0 mm | - | 84 W/m² | - |
| 1778073945 | 26.11° C | 85% | 1012.2 hPa | 0 mm | - | 84 W/m² | - |
| 1778073642 | 26.11° C | 85% | 1012.2 hPa | 0 mm | - | 83 W/m² | - |
| 1778073339 | 26.11° C | 86% | 1012.2 hPa | 0 mm | - | 75 W/m² | - |
| 1778073035 | 26.11° C | 87% | 1012.2 hPa | 0 mm | - | 66 W/m² | - |
| 1778072732 | 25° C | 87% | 1012.2 hPa | 0 mm | - | 52 W/m² | - |
| 1778072430 | 26.11° C | 88% | 1012.2 hPa | 0 mm | - | 32 W/m² | - |
| 1778072128 | 25° C | 88% | 1012.2 hPa | 0 mm | - | 30 W/m² | - |
| 1778071825 | 25° C | 89% | 1012.2 hPa | 0 mm | - | 30 W/m² | - |
| 1778071523 | 25° C | 89% | 1012.2 hPa | 0 mm | - | 29 W/m² | - |
| 1778071220 | 25° C | 89% | 1011.9 hPa | 0 mm | - | 29 W/m² | - |
| 1778070918 | 25° C | 90% | 1011.9 hPa | 0 mm | - | 17 W/m² | - |
| 1778070616 | 25° C | 90% | 1012.2 hPa | 0 mm | - | 16 W/m² | - |
| 1778070312 | 25° C | 90% | 1012.2 hPa | 0 mm | - | 17 W/m² | - |
| 1778070011 | 25° C | 90% | 1011.9 hPa | 0 mm | - | 14 W/m² | - |
| 1778069708 | 25° C | 90% | 1011.9 hPa | 0 mm | - | 13 W/m² | - |
| 1778069404 | 25° C | 90% | 1011.5 hPa | 0 mm | - | 11 W/m² | - |
| 1778069102 | 25° C | 90% | 1011.9 hPa | 0 mm | - | 5 W/m² | - |
| 1778068799 | 25° C | 90% | 1011.9 hPa | 0 mm | - | 7 W/m² | - |
| 1778068497 | 25° C | 90% | 1011.5 hPa | 0 mm | - | 9 W/m² | - |
| 1778068195 | 25° C | 89% | 1011.5 hPa | 0 mm | - | 6 W/m² | - |
| 1778067892 | 25° C | 89% | 1011.5 hPa | 0 mm | - | 4 W/m² | - |
| 1778067591 | 25° C | 89% | 1011.5 hPa | 0 mm | - | 3 W/m² | - |
| 1778067288 | 25° C | 88% | 1011.2 hPa | 0 mm | - | 1 W/m² | - |
| 1778066984 | 25° C | 88% | 1011.5 hPa | 1.78 mm | - | 0 W/m² | - |
* Rain latest hour (hover to see other rain measurements)
** Current wind speed in m/s (hover to see current wind gust speed)